Tallahassee, FL

3:28 AM EDT on October 17, 2017 (GMT -0400)
Tallahassee Regional

Weather History for KTLH - May, 2013

Change the Weather History Date:

Thursday, May 23, 2013

  Actual Average Record
Temperature  
Mean Temperature 81 °F 76 °F  
Max Temperature 95 °F 89 °F 99 °F (1996)
Min Temperature 67 °F 64 °F 48 °F (1993)
Degree Days  
Heating Degree Days 0    
Month to date heating degree days 14  
Since 1 July heating degree days 1332  
Cooling Degree Days 16    
Month to date cooling degree days 158  
Year to date cooling degree days 355  
Growing Degree Days 30 (Base 50)    
Moisture  
Dew Point 61 °F    
Average Humidity 58    
Maximum Humidity 93    
Minimum Humidity 23    
Precipitation  
Precipitation 0.00 in 0.13 in 3.02 in (1976)
Month to date precipitation 0.36 2.26  
Year to date precipitation 22.32 20.45  
Sea Level Pressure  
Sea Level Pressure 29.98 in    
Wind  
Wind Speed 5 mph (NW)    
Max Wind Speed 17 mph    
Max Gust Speed 22 mph    
Visibility 10 miles    
Events Fog    
T = Trace of Precipitation, MM = Missing Value Source: NWS Daily Summary

Daily Weather History Graph

Daily Weather History Graph

Search for Another Location

Airport or City:

Trip Planner

Search our weather history database for the weather conditions in past years. The results will help you decide how hot, cold, wet, or windy it might be!

Date:

Astronomy

May. 23, 2013 Rise Set
Actual Time 6:38 AM EDT 8:29 PM EDT
Civil Twilight 6:12 AM EDT 8:56 PM EDT
Nautical Twilight 5:39 AM EDT 9:29 PM EDT
Astronomical Twilight 5:05 AM EDT 10:03 PM EDT
Moon 7:06 PM EDT (5/23) 5:15 AM EDT (5/23)
Length of Visible Light 14h 44m
Length of Day
13h 51m
Waxing Gibbous, 97% of the Moon is Illuminated
May 23
Waxing Gibbous
May 25
Full
May 31
Last Quarter
Jun 8
New
Jun 16
First Quarter

Hourly Weather History & Observations

Time (EDT) Temp. Heat Index Dew Point Humidity Pressure Visibility Wind Dir Wind Speed Gust Speed Precip Events Conditions
12:53 AM 75.0 °F - 69.1 °F 82% 29.95 in 10.0 mi West 9.2 mph - N/A   Clear
1:53 AM 75.0 °F - 66.9 °F 76% 29.95 in 10.0 mi WNW 3.5 mph - N/A   Mostly Cloudy
2:53 AM 73.0 °F - 66.9 °F 81% 29.95 in 10.0 mi Calm Calm - N/A   Clear
3:53 AM 71.1 °F - 66.0 °F 84% 29.96 in 10.0 mi Calm Calm - N/A   Mostly Cloudy
4:53 AM 69.1 °F - 64.0 °F 84% 29.96 in 10.0 mi Calm Calm - N/A   Clear
5:53 AM 66.9 °F - 64.0 °F 90% 29.97 in 10.0 mi Calm Calm - N/A Fog Patches of Fog
6:53 AM 69.1 °F - 64.9 °F 87% 29.99 in 10.0 mi Calm Calm - N/A Fog Patches of Fog
7:53 AM 70.0 °F - 66.0 °F 87% 30.00 in 10.0 mi Calm Calm - N/A   Clear
8:42 AM 75.2 °F - 69.8 °F 83% 30.02 in 10.0 mi WNW 5.8 mph - N/A   Partly Cloudy
8:53 AM 77.0 °F - 69.1 °F 76% 30.01 in 10.0 mi Variable 4.6 mph - N/A   Partly Cloudy
9:53 AM 82.0 °F 84.1 °F 66.0 °F 58% 30.01 in 10.0 mi NW 10.4 mph - N/A   Partly Cloudy
10:53 AM 86.0 °F 86.8 °F 63.0 °F 46% 30.01 in 10.0 mi NW 10.4 mph 16.1 mph N/A   Scattered Clouds
11:53 AM 88.0 °F 88.4 °F 62.1 °F 42% 30.01 in 10.0 mi NNW 9.2 mph 17.3 mph N/A   Scattered Clouds
12:53 PM 89.1 °F 89.3 °F 62.1 °F 40% 30.00 in 10.0 mi WNW 10.4 mph 18.4 mph N/A   Mostly Cloudy
1:53 PM 89.1 °F 89.3 °F 62.1 °F 40% 29.99 in 10.0 mi Variable 6.9 mph 17.3 mph N/A   Scattered Clouds
2:53 PM 91.9 °F 91.5 °F 60.1 °F 34% 29.97 in 10.0 mi NW 9.2 mph 18.4 mph N/A   Scattered Clouds
3:53 PM 95.0 °F 93.0 °F 55.0 °F 26% 29.96 in 10.0 mi NNW 10.4 mph - N/A   Scattered Clouds
4:53 PM 93.9 °F 91.7 °F 54.0 °F 26% 29.95 in 10.0 mi NW 9.2 mph 20.7 mph N/A   Partly Cloudy
5:53 PM 93.9 °F - 50.0 °F 22% 29.95 in 10.0 mi NW 9.2 mph 18.4 mph N/A   Partly Cloudy
6:53 PM 93.0 °F - 50.0 °F 23% 29.94 in 10.0 mi NW 8.1 mph - N/A   Partly Cloudy
7:53 PM 91.0 °F - 51.1 °F 25% 29.94 in 10.0 mi NW 5.8 mph - N/A   Clear
8:53 PM 82.0 °F 81.6 °F 55.9 °F 41% 29.96 in 10.0 mi Calm Calm - N/A   Clear
9:53 PM 77.0 °F - 57.0 °F 50% 29.97 in 10.0 mi Calm Calm - N/A   Clear
10:53 PM 75.9 °F - 57.9 °F 54% 30.00 in 10.0 mi Calm Calm - N/A   Clear
11:53 PM 75.9 °F - 64.9 °F 69% 30.00 in 10.0 mi West 5.8 mph - N/A   Clear